Regional Weather Roundup
Issued by NWS

Home | Current Version | Previous Version | Text Only | Print | Product List | Glossary Off
Versions: 1 2 3 4 5 6 7 8 9 10 11 12 13 14 15 16 17 18 19 20 21 22 23 24 25 26 27 28 29 30 31 32 33 34 35 36 37 38 39 40 41 42 43 44 45 46 47 48 49 50

000
ASUS44 KMEG 270510
RWRTN
TENNESSEE HOURLY STATE WEATHER ROUNDUP
NATIONAL WEATHER SERVICE MEMPHIS TN
1200 AM CDT WED MAY 27 2015

TNZ002-004-019-021-049-052-054-088>092-270600-
WEST TENNESSEE

CITY           SKY/WX    TMP DP  RH WIND       PRES   REMARKS
MEMPHIS INTL   PTCLDY    71  66  84 S7        30.07F
NWS MEMPHIS      N/A     70 N/A N/A MISG        N/A
JACKSON        CLEAR     66  63  90 S3        30.09F
DYERSBURG      CLEAR     66  54  63 CALM      30.08F
PARIS          CLEAR     61  61 100 CALM      30.10S
LEXINGTON      PTCLDY    68  64  88 S5        30.11F
$$

TNZ008-025-027-028-033-062-065-066-270600-
NORTH MIDDLE TENNESSEE

CITY           SKY/WX    TMP DP  RH WIND       PRES   REMARKS
NASHVILLE      PTCLDY    69  67  93 SW6       30.13R
CLARKSVILLE    PTCLDY    67  65  93 S3        30.10R
SMYRNA         PTCLDY    71  67  87 S6        30.14R
COOKEVILLE     PTCLDY    70  68  94 S5        30.16R
CROSSVILLE     CLOUDY    68  64  87 VRB3      30.21S
$$

TNZ061-075-076-078-094-096-097-270600-
SOUTH MIDDLE TENNESSEE

CITY           SKY/WX    TMP DP  RH WIND       PRES   REMARKS
FAYETTEVILLE   PTCLDY   N/A N/A N/A MISG      30.17F
TULLAHOMA      CLOUDY    70  64  83 S7        30.18F
WINCHESTER     CLOUDY    70  64  83 S6        30.18F
MCMINNVILLE    CLEAR     70  70 100 CALM      30.17S
COLUMBIA       CLEAR     70  66  88 S6        30.13S
SHELBYVILLE    CLEAR     70  68  94 S6        30.17S
$$

TNZ017-018-042-046-047-270600-
NORTHEAST TENNESSEE

CITY           SKY/WX    TMP DP  RH WIND       PRES   REMARKS
TRI CITIES     CLOUDY    71  66  84 S6        30.19F
ELIZABETHTON   PTCLDY    64  64 100 CALM      30.21F
$$

TNZ012-013-036-069-073-074-270600-
CENTRAL EAST TENNESSEE

CITY           SKY/WX    TMP DP  RH WIND       PRES   REMARKS
KNOXVILLE      PTCLDY    69  62  78 W10       30.18R
OAK RIDGE      CLOUDY    70  67  90 CALM      30.20S
GATLINBURG     MOCLDY    66  63  88 CALM      30.17S
MORRISTOWN     CLOUDY    72  63  73 W6        30.19F
$$

TNZ083-085-099-270600-
SOUTHEAST TENNESSEE

CITY           SKY/WX    TMP DP  RH WIND       PRES   REMARKS
CHATTANOOGA    MOCLDY    67  65  93 CALM      30.20S
$$

SKY/WX REPORTED AS FAIR MEANS FEW OR NO CLOUDS BELOW
12 THOUSAND FEET.



USA.gov is the U.S. government's official web portal to all federal, state and local government web resources and services.